Аушкуль

Россия / Республика Башкортостан     54°41′17″N   59°42′23″E
темп.,
°C
ветер,
м/с
пор.,
м/с
влажн.,
%
обл.,
%
осадки,
мм/ч
давл.,
гПа
погр.,
м
11 мая, вт
вт1123:00+10ссв22595 0.0 102511
02:00+8с11630 0.0 102611
05:00+7ссз11665 0.0 102710
08:00+12ююв11515 0.0 1027196
11:00+16юв32355 0.0 10271056
14:00+19ююв22289 0.0 10271514
17:00+19ю2226100 0.0 10271552
20:00+15ююв1142100 0.0 102711
12 мая, ср
ср1223:00+12зсз1144100 0.0 102810
02:00+10з11490 0.0 102910
05:00+9зсз11525 0.0 103010
08:00+15з11430 0.0 1029132
11:00+21всв22270 0.0 10291243
14:00+22вюв22255 0.0 10281918
17:00+23ююв22262 0.0 10271652
20:00+19зсз114336 0.0 102713
13 мая, чт
чт1323:00+14зсз22585 0.0 102811
02:00+13зсз11615 0.0 102811
05:00+12зсз11665 0.0 102910
08:00+17зсз125594 0.0 1029157
11:00+22ссз44365 0.0 10281615
14:00+24с33305 0.0 10271971
17:00+25ссз33305 0.0 10262075
20:00+20ссз34495 0.0 102769
14 мая, пт
пт1423:00+16зсз11555 0.0 102811
02:00+15зсз11585 0.0 102811
05:00+13зсз11615 0.0 102810
08:00+19зюз11505 0.0 1028144
11:00+24ююз23360 0.0 10271382
14:00+27ююз45284 0.0 10252793
17:00+27ююз443065 0.0 10241941
20:00+21ссз244826 0.0 1025103
15 мая, сб
сб1523:00+17сз22583 0.0 102629
02:00+15зсз22550 0.0 102511
05:00+13з11555 0.0 102611
08:00+19зюз11455 0.0 1026145
11:00+24ю22330 0.0 10251589
14:00+26ююв33280 0.0 10232103
17:00+26ююв333056 0.1 10221628
20:00+21зсз115020 0.4 102211